Regional Weather Roundup
Issued by NWS

Home | Current Version | Previous Version | Graphics & Text | Print | Product List | Glossary On
Versions: 1 2 3 4 5 6 7 8 9 10 11 12 13 14 15 16 17 18 19 20 21 22 23 24 25 26 27 28 29 30 31 32 33 34 35 36 37 38 39 40 41 42 43 44 45 46 47 48 49 50
000
ASUS43 KFSD 271302
RWRSD

WEATHER ROUNDUP FOR SOUTH DAKOTA
NATIONAL WEATHER SERVICE SIOUX FALLS SD
700 AM CST THU NOV 27 2014

NOTE: "FAIR" INDICATES FEW OR NO CLOUDS BELOW 12,000 FEET WITH NO
SIGNIFICANT WEATHER AND/OR OBSTRUCTIONS TO VISIBILITY.


SDZ001>005-009-010-012>017-271400-
NORTHWEST AND NORTH CENTRAL SOUTH DAKOTA

CITY           SKY/WX    TMP DP  RH WIND       PRES   REMARKS
BUFFALO          N/A     19  16  88 SE15      30.05F WCI   5
FAITH            N/A     13  10  88 SE14      30.19F WCI  -2
MOBRIDGE       CLOUDY     2  -4  76 SE10      30.32F WCI -14
$$

SDZ012>016-024>037-041>051-057-063-072>074-271400-
SOUTHWEST AND SOUTH CENTRAL SOUTH DAKOTA

CITY           SKY/WX    TMP DP  RH WIND       PRES   REMARKS
RAPID CTY ARPT CLOUDY    19  17  92 SE9       30.14F WCI   8
PIERRE         CLOUDY    11   8  88 SE14      30.34F WCI  -5
CUSTER         PTCLDY    26  22  84 SW7       30.05F WCI  18
ELLSWORTH AFB  CLOUDY    20  18  92 SE9       30.12  WCI   9
PHILIP         CLOUDY    17  11  77 E14       30.25F WCI   3
PINE RIDGE     PTCLDY    26  22  84 CALM      30.14F
WINNER         CLOUDY    17   8  67 SE14      30.33F WCI   3
$$

SDZ004>011-016>023-039-040-271400-
NORTHEAST SOUTH DAKOTA

CITY           SKY/WX    TMP DP  RH WIND       PRES   REMARKS
ABERDEEN       MOCLDY   -13 -18  78 CALM      30.46F
WATERTOWN      PTCLDY   -13 -16  86 CALM      30.42F
SISSETON         N/A    -14 -19  79 CALM      30.50F
$$

SDZ017-020-022-023-036>040-048>070-271400-
SOUTHEAST SOUTH DAKOTA

CITY           SKY/WX    TMP DP  RH WIND       PRES   REMARKS
SIOUX FALLS    PTCLDY    -5 -10  79 CALM      30.47F
HURON          PTCLDY    -6 -10  83 E5        30.46F WCI -17
CHAMBERLAIN    CLOUDY    10   4  77 SE12      30.39F WCI  -5
MITCHELL       MOCLDY     0  -6  76 E7        30.47F WCI -13
YANKTON        CLOUDY     9   0  66 E7        30.50S WCI  -3
$$

ABBREVIATIONS USED IN REMARKS
   TC - TEMPERATURE IN CELSIUS
  WCI - WIND CHILL INDEX
   HX - HEAT INDEX
  VSB - VISIBILITY




USA.gov is the U.S. government's official web portal to all federal, state and local government web resources and services.